User: anonymous   Login
Location: Moena
(46.3667°N, 11.6500°E)
Time: 16:33:50
(UTC+00:00)
Language:

COSMOS 2251 DEB - Orbit

View from above orbital plane
View from above orbital plane
View from above satellite
View from above satellite

Ground track
Ground track

The orbit data is extracted from the following two-line orbital elements,

1 47118U 93036BYL 21267.20935348  .00007670  00000-0  73334-3 0  9997
2 47118  74.0415  93.5051 0057830 161.7837 198.5437 14.92112056377198
Epoch (UTC): 24 September 2021 05:01:28
Eccentricity: 0.0057830
inclination: 74.0415°
perigee height: 551 km
apogee height: 631 km
right ascension of ascending node: 93.5051°
argument of perigee: 161.7837°
revolutions per day: 14.92112056
mean anomaly at epoch: 198.5437°
orbit number at epoch: 37719

The dashed part of the orbit path shows where the satellite is in the earth's shadow,  

DLR